Weather History for Carroll, IA

Change the Weather History Date:

Wednesday, August 7, 2013

  Actual Average Record
Temperature  
Mean Temperature 71 °F -  
Max Temperature 78 °F 84 °F 97 °F (1949)
Min Temperature 62 °F 59 °F 43 °F (1976)
Cooling Degree Days 6    
Growing Degree Days 21 (Base 50)    
Moisture  
Dew Point 63 °F    
Average Humidity 80    
Maximum Humidity 100    
Minimum Humidity 51    
Precipitation  
Precipitation 0.00 in - - ()
Sea Level Pressure  
Sea Level Pressure 29.95 in    
Wind  
Wind Speed 6 mph (NNW)    
Max Wind Speed 13 mph    
Max Gust Speed 16 mph    
Visibility 10 miles    
Events      
Averages and records for this station are not official NWS values.
T = Trace of Precipitation, MM = Missing Value Source: NWS Daily Summary

Daily Weather History Graph

Daily Weather History Graph

Search for Another Location

Airport:

Trip Planner

Search our weather history database for the weather conditions in past years. The results will help you decide how hot, cold, wet, or windy it might be!

Date:

Astronomy

Aug. 07, 2013 Rise Set
Actual Time 6:18 AM CDT 8:30 PM CDT
Civil Twilight 5:47 AM CDT 9:00 PM CDT
Nautical Twilight 5:09 AM CDT 9:38 PM CDT
Astronomical Twilight 4:27 AM CDT 10:20 PM CDT
Moon 7:10 AM CDT (8/7) 8:35 PM CDT (8/7)
Length of Visible Light 15h 12m
Length of Day
14h 11m
New Moon, 1% of the Moon is Illuminated
Aug 7
New Moon
Aug 14
First Quarter
Aug 20
Full
Aug 28
Last Quarter
Sep 5
New

Hourly Weather History & Observations

Time (CDT) Temp. Dew Point Humidity Pressure Visibility Wind Dir Wind Speed Gust Speed Precip Events Conditions
12:15 AM 69.8 °F 69.8 °F 100% 29.85 in 10.0 mi Calm Calm - N/A   Overcast
12:35 AM 69.8 °F 69.8 °F 100% 29.86 in 8.0 mi SW 3.5 mph - N/A   Mostly Cloudy
12:55 AM 71.6 °F 71.6 °F 100% 29.85 in 9.0 mi WSW 4.6 mph - N/A   Overcast
1:15 AM 69.8 °F 69.8 °F 100% 29.85 in 9.0 mi West 5.8 mph - N/A   Partly Cloudy
1:35 AM 69.8 °F 69.8 °F 100% 29.85 in 8.0 mi WNW 6.9 mph - N/A   Clear
1:55 AM 69.8 °F 69.8 °F 100% 29.85 in 7.0 mi West 4.6 mph - N/A   Clear
2:15 AM 68.0 °F 68.0 °F 100% 29.85 in 6.0 mi WNW 6.9 mph - N/A   Clear
2:35 AM 69.8 °F 69.8 °F 100% 29.85 in 7.0 mi West 5.8 mph - N/A   Clear
2:55 AM 69.8 °F 69.8 °F 100% 29.85 in 7.0 mi WNW 5.8 mph - N/A   Clear
3:15 AM 68.0 °F 68.0 °F 100% 29.84 in 5.0 mi West 6.9 mph - N/A   Clear
3:35 AM 68.0 °F 68.0 °F 100% 29.84 in 8.0 mi WNW 8.1 mph - N/A   Clear
3:55 AM 69.8 °F 68.0 °F 94% 29.84 in 10.0 mi NW 9.2 mph - N/A   Clear
4:15 AM 69.8 °F 68.0 °F 94% 29.84 in 10.0 mi NNW 11.5 mph - N/A   Clear
4:35 AM 68.0 °F 66.2 °F 94% 29.85 in 10.0 mi NNW 5.8 mph 12.7 mph N/A   Clear
4:55 AM 66.2 °F 66.2 °F 100% 29.86 in 10.0 mi Calm Calm - N/A   Clear
5:15 AM 66.2 °F 66.2 °F 100% 29.86 in 10.0 mi NW 3.5 mph - N/A   Clear
5:35 AM 64.4 °F 64.4 °F 100% 29.87 in 10.0 mi NW 4.6 mph - N/A   Clear
5:55 AM 66.2 °F 64.4 °F 94% 29.88 in 10.0 mi NNW 8.1 mph - N/A   Clear
6:15 AM 64.4 °F 62.6 °F 94% 29.88 in 10.0 mi North 10.4 mph - N/A   Clear
6:35 AM 64.4 °F 62.6 °F 94% 29.89 in 10.0 mi North 9.2 mph - N/A   Clear
6:55 AM 64.4 °F 62.6 °F 94% 29.91 in 10.0 mi North 5.8 mph - N/A   Clear
7:15 AM 64.4 °F 62.6 °F 94% 29.92 in 10.0 mi Calm Calm - N/A   Clear
7:35 AM 64.4 °F 62.6 °F 94% 29.93 in 10.0 mi North 9.2 mph - N/A   Clear
7:55 AM 66.2 °F 62.6 °F 88% 29.93 in 10.0 mi North 6.9 mph - N/A   Clear
8:15 AM 66.2 °F 62.6 °F 88% 29.93 in 10.0 mi North 10.4 mph - N/A   Clear
8:35 AM 66.2 °F 62.6 °F 88% 29.94 in 10.0 mi North 9.2 mph - N/A   Clear
8:55 AM 68.0 °F 62.6 °F 83% 29.95 in 10.0 mi North 9.2 mph - N/A   Clear
9:15 AM 68.0 °F 62.6 °F 83% 29.96 in 10.0 mi North 9.2 mph - N/A   Scattered Clouds
9:35 AM 68.0 °F 62.6 °F 83% 29.96 in 10.0 mi North 11.5 mph - N/A   Mostly Cloudy
9:55 AM 68.0 °F 62.6 °F 83% 29.97 in 10.0 mi North 10.4 mph - N/A   Overcast
10:15 AM 66.2 °F 62.6 °F 88% 29.99 in 10.0 mi NNW 9.2 mph 15.0 mph N/A   Overcast
10:35 AM 66.2 °F 62.6 °F 88% 30.00 in 10.0 mi North 9.2 mph - N/A   Overcast
10:55 AM 68.0 °F 62.6 °F 83% 30.01 in 10.0 mi North 12.7 mph - N/A   Overcast
11:15 AM 66.2 °F 60.8 °F 83% 30.01 in 10.0 mi North 12.7 mph - N/A   Overcast
11:35 AM 68.0 °F 60.8 °F 78% 30.01 in 10.0 mi North 10.4 mph - N/A   Overcast
11:55 AM 68.0 °F 60.8 °F 78% 30.01 in 10.0 mi NNE 11.5 mph - N/A   Overcast
12:15 PM 68.0 °F 60.8 °F 78% 30.01 in 10.0 mi North 11.5 mph - N/A   Overcast
12:35 PM 69.8 °F 60.8 °F 73% 30.01 in 10.0 mi North 10.4 mph - N/A   Overcast
12:55 PM 71.6 °F 60.8 °F 69% 30.00 in 10.0 mi NE 11.5 mph - N/A   Mostly Cloudy
1:15 PM 73.4 °F 60.8 °F 65% 29.99 in 10.0 mi North 10.4 mph - N/A   Mostly Cloudy
1:35 PM 73.4 °F 60.8 °F 65% 29.99 in 10.0 mi North 11.5 mph - N/A   Scattered Clouds
1:55 PM 75.2 °F 62.6 °F 65% 29.99 in 10.0 mi NNW 9.2 mph 16.1 mph N/A   Clear
2:15 PM 77.0 °F 62.6 °F 61% 29.99 in 10.0 mi NNW 8.1 mph - N/A   Partly Cloudy
2:35 PM 77.0 °F 62.6 °F 61% 29.99 in 10.0 mi Variable 5.8 mph 15.0 mph N/A   Clear
2:55 PM 78.8 °F 62.6 °F 57% 29.98 in 10.0 mi North 11.5 mph - N/A   Clear
3:15 PM 78.8 °F 60.8 °F 54% 29.98 in 10.0 mi North 11.5 mph - N/A   Clear
3:35 PM 78.8 °F 60.8 °F 54% 29.98 in 10.0 mi North 11.5 mph - N/A   Clear
3:55 PM 78.8 °F 60.8 °F 54% 29.98 in 10.0 mi NNE 11.5 mph - N/A   Clear
4:15 PM 78.8 °F 60.8 °F 54% 29.97 in 10.0 mi North 11.5 mph - N/A   Clear
4:35 PM 78.8 °F 60.8 °F 54% 29.97 in 10.0 mi NNW 10.4 mph - N/A   Clear
4:55 PM 78.8 °F 59.0 °F 51% 29.97 in 10.0 mi North 11.5 mph - N/A   Clear
5:15 PM 78.8 °F 60.8 °F 54% 29.97 in 10.0 mi Variable 6.9 mph 15.0 mph N/A   Clear
5:35 PM 78.8 °F 59.0 °F 51% 29.97 in 10.0 mi NNW 9.2 mph - N/A   Clear
5:55 PM 78.8 °F 60.8 °F 54% 29.97 in 10.0 mi North 12.7 mph - N/A   Clear
6:15 PM 78.8 °F 59.0 °F 51% 29.98 in 10.0 mi North 9.2 mph - N/A   Clear
6:35 PM 78.8 °F 60.8 °F 54% 29.98 in 10.0 mi North 9.2 mph - N/A   Clear
6:55 PM 77.0 °F 59.0 °F 54% 29.97 in 10.0 mi North 9.2 mph - N/A   Clear
7:35 PM 75.2 °F 60.8 °F 61% 29.98 in 10.0 mi NNE 8.1 mph - N/A   Clear
7:55 PM 73.4 °F 60.8 °F 65% 29.98 in 10.0 mi North 5.8 mph - N/A   Clear
8:15 PM 71.6 °F 60.8 °F 69% 29.99 in 10.0 mi NNE 4.6 mph - N/A   Clear
8:35 PM 71.6 °F 60.8 °F 69% 29.99 in 10.0 mi Calm Calm - N/A   Clear
8:55 PM 69.8 °F 60.8 °F 73% 30.00 in 10.0 mi Calm Calm - N/A   Clear
9:15 PM 69.8 °F 62.6 °F 78% 30.01 in 10.0 mi NE 3.5 mph - N/A   Clear
9:35 PM 68.0 °F 62.6 °F 83% 30.02 in 10.0 mi North 4.6 mph - N/A   Clear
9:55 PM 68.0 °F 62.6 °F 83% 30.03 in 10.0 mi NNE 3.5 mph - N/A   Clear
10:15 PM 68.0 °F 62.6 °F 83% 30.03 in 10.0 mi Calm Calm - N/A   Clear
10:35 PM 68.0 °F 60.8 °F 78% 30.03 in 10.0 mi NE 4.6 mph - N/A   Clear
10:55 PM 66.2 °F 60.8 °F 83% 30.03 in 10.0 mi NNE 5.8 mph - N/A   Clear
11:15 PM 64.4 °F 60.8 °F 88% 30.03 in 10.0 mi NNE 3.5 mph - N/A   Clear
11:35 PM 64.4 °F 60.8 °F 88% 30.04 in 10.0 mi North 3.5 mph - N/A   Clear
11:55 PM 62.6 °F 60.8 °F 94% 30.04 in 10.0 mi Calm Calm - N/A   Clear